This is the latest recevied weather packets stored in our database for station/object KC5CAM-13. If no packets are shown the sender has not sent any weather packets the latest 10 day(s).
| Time | Temp. | Humidity | Pressure | Rain* | Wind** | Luminosity | Snow |
|---|---|---|---|---|---|---|---|
| 1777730677 | 15.56° C | 68% | 1022.8 hPa | 0 mm | - | 43 W/m² | - |
| 1777730373 | 15.56° C | 69% | 1022.6 hPa | 0 mm | - | 41 W/m² | - |
| 1777730069 | 15° C | 70% | 1022.7 hPa | 0 mm | - | 40 W/m² | - |
| 1777729765 | 14.44° C | 71% | 1022.7 hPa | 0 mm | - | 38 W/m² | - |
| 1777729463 | 13.89° C | 74% | 1022.6 hPa | 0 mm | - | 37 W/m² | - |
| 1777729159 | 13.89° C | 76% | 1022.6 hPa | 0 mm | - | 35 W/m² | - |
| 1777728856 | 12.78° C | 81% | 1022.6 hPa | 0 mm | - | 35 W/m² | - |
| 1777728553 | 12.78° C | 84% | 1022.5 hPa | 0 mm | - | 33 W/m² | - |
| 1777728250 | 12.22° C | 87% | 1022.5 hPa | 0 mm | - | 32 W/m² | - |
| 1777727947 | 11.67° C | 89% | 1022.5 hPa | 0 mm | - | 32 W/m² | - |
| 1777727644 | 11.11° C | 91% | 1022.4 hPa | 0 mm | - | 30 W/m² | - |
| 1777727341 | 11.11° C | 92% | 1022.3 hPa | 0 mm | - | 29 W/m² | - |
| 1777727038 | 10.56° C | 93% | 1022.4 hPa | 0 mm | - | 27 W/m² | - |
| 1777726735 | 10° C | 94% | 1022.2 hPa | 0 mm | - | 26 W/m² | - |
| 1777726433 | 10° C | 94% | 1022.2 hPa | 0 mm | - | 25 W/m² | - |
| 1777726129 | 9.44° C | 95% | 1022.2 hPa | 0 mm | - | 23 W/m² | - |
| 1777725826 | 9.44° C | 95% | 1022.1 hPa | 0 mm | - | 22 W/m² | - |
| 1777725524 | 9.44° C | 95% | 1022.1 hPa | 0 mm | - | 21 W/m² | - |
| 1777725221 | 8.89° C | 95% | 1021.9 hPa | 0 mm | - | 19 W/m² | - |
| 1777724918 | 8.89° C | 95% | 1021.8 hPa | 0 mm | - | 18 W/m² | - |
| 1777724614 | 8.89° C | 95% | 1021.8 hPa | 0 mm | - | 17 W/m² | - |
| 1777724313 | 8.33° C | 95% | 1021.7 hPa | 0 mm | - | 15 W/m² | - |
| 1777724010 | 8.33° C | 95% | 1021.6 hPa | 0 mm | - | 12 W/m² | - |
| 1777723706 | 8.33° C | 95% | 1021.3 hPa | 0 mm | - | 11 W/m² | - |
| 1777723403 | 8.33° C | 95% | 1021.3 hPa | 0 mm | - | 9 W/m² | - |
* Rain latest hour (hover to see other rain measurements)
** Current wind speed in m/s (hover to see current wind gust speed)